Time,TemperatureF,DewpointF,PressureIn,WindDirection,WindDirectionDegrees,WindSpeedMPH,WindSpeedGustMPH,Humidity,HourlyPrecipIn,Conditions,Clouds,dailyrainin,SoftwareType,DateUTC
2013-11-01 00:00:00,83.5,78.9,29.87,ENE,68,9.0,17.0,86,0.00,,,0.00,VWS V14.01,2013-11-01 06:00:00,
2013-11-01 00:30:00,83.4,78.4,29.86,ENE,68,8.0,17.0,85,0.00,,,0.00,VWS V14.01,2013-11-01 06:30:00,
2013-11-01 01:00:00,83.3,79.0,29.85,ENE,68,6.0,14.0,87,0.00,,,0.00,VWS V14.01,2013-11-01 07:00:00,
2013-11-01 01:30:00,83.2,77.9,29.84,ENE,68,6.0,12.0,84,0.00,,,0.00,VWS V14.01,2013-11-01 07:30:00,
2013-11-01 02:00:00,83.1,77.4,29.83,ENE,68,5.0,11.0,83,0.00,,,0.00,VWS V14.01,2013-11-01 08:00:00,
2013-11-01 02:30:00,83.1,77.4,29.82,ENE,68,5.0,11.0,83,0.00,,,0.00,VWS V14.01,2013-11-01 08:30:00,
2013-11-01 03:00:00,83.1,77.4,29.82,ENE,68,6.0,11.0,83,0.00,,,0.00,VWS V14.01,2013-11-01 09:00:00,
2013-11-01 03:30:00,83.1,77.4,29.82,ENE,68,4.0,10.0,83,0.00,,,0.00,VWS V14.01,2013-11-01 09:30:00,
2013-11-01 04:00:00,83.0,77.3,29.83,ENE,68,6.0,11.0,83,0.00,,,0.00,VWS V14.01,2013-11-01 10:00:00,
2013-11-01 04:30:00,83.0,77.7,29.83,ENE,68,3.0,9.0,84,0.00,,,0.00,VWS V14.01,2013-11-01 10:30:00,
2013-11-01 05:00:00,82.8,77.5,29.83,ENE,68,3.0,8.0,84,0.00,,,0.00,VWS V14.01,2013-11-01 11:00:00,
2013-11-01 05:30:00,82.9,77.2,29.84,ENE,68,3.0,7.0,83,0.00,,,0.00,VWS V14.01,2013-11-01 11:30:00,
2013-11-01 06:00:00,83.3,77.6,29.85,East,90,4.0,8.0,83,0.00,,,0.00,VWS V14.01,2013-11-01 12:00:00,
2013-11-01 06:30:00,84.6,77.4,29.86,East,90,5.0,8.0,79,0.00,,,0.00,VWS V14.01,2013-11-01 12:30:00,
2013-11-01 07:00:00,85.1,77.1,29.87,East,90,4.0,8.0,77,0.00,,,0.00,VWS V14.01,2013-11-01 13:00:00,
2013-11-01 07:30:00,85.5,77.9,29.88,East,90,4.0,7.0,78,0.00,,,0.00,VWS V14.01,2013-11-01 13:30:00,
2013-11-01 08:00:00,87.0,78.5,29.88,ESE,112,2.0,6.0,76,0.00,,,0.00,VWS V14.01,2013-11-01 14:00:00,
2013-11-01 08:30:00,88.8,79.4,29.89,ESE,112,2.0,5.0,74,0.00,,,0.00,VWS V14.01,2013-11-01 14:30:00,
2013-11-01 09:00:00,87.1,79.4,29.89,South,180,3.0,6.0,78,0.00,,,0.00,VWS V14.01,2013-11-01 15:00:00,
2013-11-01 09:30:00,88.4,79.5,29.90,SSW,202,3.0,4.0,75,0.00,,,0.00,VWS V14.01,2013-11-01 15:30:00,
2013-11-01 10:00:00,87.2,79.9,29.90,SSW,202,2.0,5.0,79,0.00,,,0.00,VWS V14.01,2013-11-01 16:00:00,
2013-11-01 10:30:00,91.2,81.3,29.88,SSW,202,1.0,3.0,73,0.00,,,0.00,VWS V14.01,2013-11-01 16:30:00,
2013-11-01 11:00:00,92.6,80.0,29.88,SE,135,2.0,5.0,67,0.00,,,0.00,VWS V14.01,2013-11-01 17:00:00,
2013-11-01 11:30:00,88.7,78.1,29.86,ESE,112,3.0,7.0,71,0.00,,,0.00,VWS V14.01,2013-11-01 17:30:00,
2013-11-01 12:00:00,87.9,77.8,29.85,East,90,5.0,9.0,72,0.00,,,0.00,VWS V14.01,2013-11-01 18:00:00,
2013-11-01 12:30:00,87.4,77.7,29.84,ENE,68,3.0,9.0,73,0.00,,,0.00,VWS V14.01,2013-11-01 18:30:00,
2013-11-01 13:00:00,87.8,78.1,29.82,ENE,68,4.0,11.0,73,0.00,,,0.00,VWS V14.01,2013-11-01 19:00:00,
2013-11-01 13:30:00,88.6,78.0,29.81,ENE,68,4.0,12.0,71,0.00,,,0.00,VWS V14.01,2013-11-01 19:30:00,
2013-11-01 14:00:00,87.9,76.9,29.80,NE,45,4.0,10.0,70,0.00,,,0.00,VWS V14.01,2013-11-01 20:00:00,
2013-11-01 14:30:00,87.7,75.8,29.80,ENE,68,4.0,10.0,68,0.00,,,0.00,VWS V14.01,2013-11-01 20:30:00,
2013-11-01 15:00:00,87.8,77.7,29.79,ENE,68,4.0,9.0,72,0.00,,,0.00,VWS V14.01,2013-11-01 21:00:00,
2013-11-01 15:30:00,87.0,77.3,29.79,ENE,68,4.0,10.0,73,0.00,,,0.00,VWS V14.01,2013-11-01 21:30:00,
2013-11-01 16:00:00,86.9,76.8,29.79,ENE,68,4.0,10.0,72,0.00,,,0.00,VWS V14.01,2013-11-01 22:00:00,
2013-11-01 16:30:00,86.6,77.7,29.79,NE,45,4.0,11.0,75,0.00,,,0.00,VWS V14.01,2013-11-01 22:30:00,
2013-11-01 17:00:00,85.5,77.5,29.80,NE,45,3.0,8.0,77,0.00,,,0.00,VWS V14.01,2013-11-01 23:00:00,
2013-11-01 17:30:00,84.5,77.3,29.81,NE,45,4.0,10.0,79,0.00,,,0.00,VWS V14.01,2013-11-01 23:30:00,
2013-11-01 18:00:00,84.5,77.3,29.81,ENE,68,4.0,9.0,79,0.00,,,0.00,VWS V14.01,2013-11-02 00:00:00,
2013-11-01 18:30:00,84.1,77.6,29.82,NE,45,4.0,10.0,81,0.00,,,0.00,VWS V14.01,2013-11-02 00:30:00,
2013-11-01 19:00:00,84.1,77.3,29.84,NE,45,4.0,10.0,80,0.00,,,0.00,VWS V14.01,2013-11-02 01:00:00,
2013-11-01 19:30:00,83.9,77.8,29.86,NE,45,3.0,8.0,82,0.00,,,0.00,VWS V14.01,2013-11-02 01:30:00,
2013-11-01 20:00:00,84.0,78.3,29.87,NE,45,3.0,11.0,83,0.00,,,0.00,VWS V14.01,2013-11-02 02:00:00,
2013-11-01 20:30:00,84.2,78.5,29.88,ENE,68,5.0,13.0,83,0.00,,,0.00,VWS V14.01,2013-11-02 02:30:00,
2013-11-01 21:00:00,84.2,78.8,29.88,ENE,68,5.0,13.0,84,0.00,,,0.00,VWS V14.01,2013-11-02 03:00:00,
2013-11-01 21:30:00,84.2,79.2,29.88,ENE,68,5.0,13.0,85,0.00,,,0.00,VWS V14.01,2013-11-02 03:30:00,
2013-11-01 22:00:00,84.2,79.2,29.89,ENE,68,6.0,12.0,85,0.00,,,0.00,VWS V14.01,2013-11-02 04:00:00,
2013-11-01 22:30:00,84.1,79.5,29.89,ENE,68,6.0,14.0,86,0.00,,,0.00,VWS V14.01,2013-11-02 04:30:00,
2013-11-01 23:00:00,84.1,79.1,29.88,NE,45,6.0,15.0,85,0.00,,,0.00,VWS V14.01,2013-11-02 05:00:00,
2013-11-01 23:30:00,84.1,78.8,29.87,NE,45,6.0,15.0,84,0.00,,,0.00,VWS V14.01,2013-11-02 05:30:00,